This is the latest recevied weather packets stored in our database for station/object W1ERB-13. If no packets are shown the sender has not sent any weather packets the latest 10 day(s).
| Time | Temp. | Humidity | Pressure | Rain* | Wind** | Luminosity | Snow |
|---|---|---|---|---|---|---|---|
| 1777735223 | 12.22° C | 75% | 1011.2 hPa | 0 mm | - | 52 W/m² | - |
| 1777734919 | 12.78° C | 75% | 1011.3 hPa | 0 mm | - | 75 W/m² | - |
| 1777734617 | 12.78° C | 73% | 1011.3 hPa | 0 mm | - | 76 W/m² | - |
| 1777734314 | 12.78° C | 71% | 1011.3 hPa | 0 mm | - | 124 W/m² | - |
| 1777734010 | 13.33° C | 70% | 1011.3 hPa | 0 mm | - | 127 W/m² | - |
| 1777733707 | 13.89° C | 70% | 1011.4 hPa | 0 mm | - | 256 W/m² | - |
| 1777733403 | 13.33° C | 71% | 1011.2 hPa | 0 mm | - | 504 W/m² | - |
| 1777733100 | 12.78° C | 72% | 1011.3 hPa | 0 mm | - | 382 W/m² | - |
| 1777732795 | 13.33° C | 71% | 1011.3 hPa | 0 mm | - | 191 W/m² | - |
| 1777732492 | 12.78° C | 75% | 1011.4 hPa | 0 mm | - | 282 W/m² | - |
| 1777732190 | 12.78° C | 72% | 1011.4 hPa | 0 mm | - | 306 W/m² | - |
| 1777731887 | 12.22° C | 74% | 1011.3 hPa | 0 mm | - | 216 W/m² | - |
| 1777731583 | 12.22° C | 75% | 1011.6 hPa | 0 mm | - | 186 W/m² | - |
| 1777731282 | 12.22° C | 76% | 1011.4 hPa | 0 mm | - | 230 W/m² | - |
| 1777730979 | 12.22° C | 75% | 1011.6 hPa | 0 mm | - | 280 W/m² | - |
| 1777730677 | 12.22° C | 76% | 1011.5 hPa | 0 mm | - | 321 W/m² | - |
| 1777730372 | 11.67° C | 76% | 1011.4 hPa | 0 mm | - | 171 W/m² | - |
| 1777730069 | 11.11° C | 77% | 1011.3 hPa | 0 mm | - | 219 W/m² | - |
| 1777729765 | 11.67° C | 80% | 1011.6 hPa | 0 mm | - | 200 W/m² | - |
| 1777729462 | 11.67° C | 80% | 1011.5 hPa | 0 mm | - | 205 W/m² | - |
| 1777729160 | 12.22° C | 79% | 1011.6 hPa | 0 mm | - | 117 W/m² | - |
| 1777728857 | 11.67° C | 75% | 1011.5 hPa | 0 mm | - | 193 W/m² | - |
| 1777728553 | 11.67° C | 79% | 1011.6 hPa | 0 mm | - | 208 W/m² | - |
| 1777728250 | 11.67° C | 81% | 1011.6 hPa | 0 mm | - | 637 W/m² | - |
| 1777727948 | 11.67° C | 81% | 1011.4 hPa | 0 mm | - | 189 W/m² | - |
* Rain latest hour (hover to see other rain measurements)
** Current wind speed in m/s (hover to see current wind gust speed)